sat.trackr.live / text

‹ back to catalog

COSMOS 2436 (723)

NORAD 32395 · 2007-065C

PAYLOAD ACTIVE UNKNOWN

§ Identity

Operator
Country
CIS
Launch date
2007-12-25
Launch site
TYMSC
Launch vehicle
Mass (kg)
RCS (m²)
5.02

Purposes: nav

External: N2YO · Heavens-Above · Gunter

§ Orbital elements

Epoch: 2026-05-22T04:14:57.062976Z

Period
675.74 min
Inclination
64.3244°
Eccentricity
0.0017121
Mean motion
2.13100136 rev/d
Perigee alt
19,086.4 km
Apogee alt
19,173.7 km
Semi-major
25,508.2 km
B*
0.0000e+0
RAAN
192.8648°
Arg perigee
356.1086°
Mean anomaly
80.4224°
Rev number
14,317

§ Raw data

COSMOS 2436 (723)1 32395U 07065C   26142.17704934  .00000025  00000+0  00000+0 0  99952 32395  64.3244 192.8648 0017121 356.1086  80.4224  2.13100136143179

JSON: /api/v1/satellites/32395 · /tle

For live sub-satellite position, see the globe view (requires WebGL).

§ Visibility from observer

Set your observer location to see the next 7 days of passes ≥ 10°. The values pass through the URL so the page stays shareable.

No JS? Fill the form by hand. The geolocation button needs JavaScript.